Wind_Speed
11 10 9 9 9 9 8 8 7 6 6 7 7 6 5 3 1 1 2 3 3 3 4 4 4 4 4 4 4 4 5 5 4 3 3 4 4 3 2 4 8 9 10 12 13 13 13 14 14 15 17 18 20 19 18 19 19 18 18 20 19 18 19 19 18 17 16 16 17 16 15 13 13 17 18 15 15 16 15 14 14 14 12 12 12
13 11 10 10 10 9 9 8 7 6 6 7 7 7 6 5 4 3 3 3 4 4 5 4 4 4 4 4 4 5 6 6 5 5 5 5 5 4 2 2 5 6 7 9 12 13 12 12 13 15 16 17 18 19 19 19 19 18 18 20 21 19 19 20 19 18 16 17 18 17 15 13 14 16 17 16 16 16 15 15 14 14 13 12 12
14 13 11 11 10 10 10 9 8 6 6 6 6 6 6 6 6 5 5 5 6 6 6 6 4 3 4 4 5 5 6 6 5 6 5 4 4 3 2 2 4 4 5 8 11 12 12 13 14 14 17 18 20 21 20 20 21 19 17 19 22 20 20 20 19 18 17 17 18 17 16 14 15 16 16 17 17 16 16 15 14 14 14 12 12
14 13 11 10 10 10 9 9 8 7 7 7 6 6 6 6 6 6 6 6 7 7 7 7 6 5 5 5 5 5 6 6 5 4 4 3 2 3 3 2 3 4 5 8 10 9 10 13 14 15 17 19 21 23 22 22 22 21 19 18 21 22 21 21 19 18 18 18 19 18 17 16 15 15 16 17 17 17 16 15 14 15 15 14 13
12 12 11 10 10 10 9 8 7 7 7 7 6 6 6 6 7 7 7 7 7 7 7 7 7 6 6 6 5 6 6 6 5 4 3 2 3 4 3 3 2 3 5 8 8 7 8 11 13 15 17 18 21 22 20 21 23 23 20 18 21 23 22 22 20 19 19 19 19 18 17 17 16 16 17 18 18 18 17 15 14 15 15 15 14
10 11 11 10 10 10 9 8 7 7 7 8 7 6 6 7 8 8 8 8 9 9 9 8 8 7 6 6 5 5 5 5 5 3 3 4 3 4 3 4 3 2 4 7 6 6 8 10 12 14 16 17 19 20 20 20 21 23 22 19 20 23 23 22 22 21 20 19 18 18 18 17 17 16 17 18 18 18 17 16 15 14 15 16 14
10 10 10 10 10 11 10 9 8 7 7 8 7 7 8 8 9 10 10 10 11 11 10 10 9 7 7 6 5 4 2 3 3 3 4 5 5 3 3 4 4 3 2 4 5 6 8 9 11 13 14 16 17 20 22 21 22 23 24 20 20 23 24 23 23 21 21 20 18 18 18 17 16 16 17 19 19 18 18 17 16 14 14 15 15
9 8 8 9 11 11 11 10 9 8 8 9 8 9 9 9 11 12 12 13 13 12 11 10 9 8 8 7 6 4 2 2 2 3 5 6 6 4 2 3 4 4 2 2 3 6 8 9 10 11 12 14 16 18 21 23 23 23 23 22 20 23 24 24 24 22 22 21 18 18 19 19 17 16 17 19 19 18 18 18 16 15 14 14 15
9 8 8 9 10 11 12 11 10 9 9 10 10 10 10 10 11 12 13 14 15 14 12 11 9 9 9 8 6 5 4 4 4 6 7 7 6 5 3 3 5 5 4 2 2 3 4 6 8 9 9 11 14 17 19 21 22 22 23 23 21 22 23 23 24 23 23 21 19 19 19 19 18 17 17 19 18 19 18 17 16 16 16 14 15
10 8 8 9 10 10 11 12 11 10 10 11 11 11 10 10 11 11 13 14 16 16 14 11 9 8 10 9 9 9 9 9 9 9 10 10 9 7 6 5 6 6 6 4 3 2 3 4 6 8 9 10 13 15 17 20 22 21 22 22 22 23 22 22 24 24 24 22 20 20 19 20 20 18 18 18 18 18 18 18 17 16 16 15 15
9 9 8 9 9 10 11 11 12 11 11 12 12 12 11 11 11 11 12 13 15 17 15 12 8 7 11 12 13 15 14 13 13 13 13 14 12 11 10 9 8 7 6 5 3 3 4 4 5 6 9 11 13 14 15 18 20 21 22 23 23 23 22 22 24 24 24 23 22 21 19 20 21 19 18 18 19 19 18 18 18 18 17 16 15
9 8 8 8 8 9 10 11 11 11 11 12 12 13 12 11 11 10 11 12 14 16 16 12 6 5 9 12 14 15 17 16 16 16 16 16 15 14 13 11 10 10 9 8 5 4 4 5 5 5 7 9 12 14 14 16 18 19 21 23 24 23 21 22 24 24 24 24 23 22 20 20 22 21 19 19 19 19 18 17 18 18 17 16 17
9 8 8 7 7 8 9 10 11 11 11 11 11 11 12 11 11 10 11 13 14 17 17 12 7 5 6 8 10 12 17 18 18 17 16 16 16 15 15 13 12 11 11 9 7 6 6 6 6 7 7 7 10 13 14 15 17 18 20 23 24 24 23 22 23 24 25 25 23 22 21 21 22 21 19 19 20 19 19 18 17 18 19 17 17
10 9 9 8 7 7 8 9 10 10 10 11 11 11 12 12 12 10 10 12 15 18 18 13 8 4 3 3 4 6 12 17 18 18 17 17 17 16 15 15 15 13 11 10 8 7 7 7 8 8 8 9 9 12 15 15 16 18 21 22 23 24 25 24 23 23 25 26 24 23 22 21 21 21 20 19 20 20 20 19 17 18 20 19 17
10 10 9 8 7 7 7 8 9 9 10 11 11 11 11 11 12 11 9 11 14 17 19 17 11 5 1 2 3 1 4 10 14 15 16 18 19 18 17 17 17 16 14 12 10 8 8 9 10 10 9 9 8 10 14 15 15 16 18 21 22 23 24 25 24 24 25 26 26 25 24 23 21 21 22 19 20 21 21 20 18 18 20 20 19
9 10 9 8 7 6 7 7 8 9 10 11 11 10 10 11 11 11 11 11 12 15 17 19 16 9 2 1 1 1 2 4 6 7 12 16 18 19 18 17 18 18 16 15 14 11 10 10 10 11 10 8 6 8 10 13 13 13 14 18 22 23 23 25 25 25 25 25 26 26 25 24 22 22 22 20 20 21 22 21 21 20 19 19 20
8 9 10 9 7 6 7 7 8 8 10 11 11 10 10 10 11 11 12 12 11 13 14 17 18 14 7 2 1 2 1 3 3 3 7 12 15 17 17 17 17 18 18 17 16 13 11 11 10 11 10 7 5 6 8 10 11 10 11 13 17 20 21 22 23 25 26 25 26 26 25 25 24 23 22 22 21 21 22 23 23 23 21 20 20
7 8 9 10 7 6 6 7 7 8 9 11 10 10 10 9 10 10 11 11 10 12 13 14 15 15 12 8 5 3 1 2 2 2 4 7 12 13 14 16 16 18 19 18 18 15 12 11 10 11 10 8 6 6 7 9 10 11 12 12 13 17 19 20 23 26 27 27 26 26 26 25 24 24 23 22 22 22 23 24 23 23 23 22 22
6 7 8 9 8 6 6 7 7 8 9 10 10 10 10 9 9 9 10 10 10 13 14 13 13 13 13 10 9 8 6 4 2 1 2 4 11 14 13 14 14 17 20 18 19 19 14 11 10 10 10 8 8 6 6 7 8 10 12 12 13 16 18 19 23 26 28 29 27 26 27 26 24 25 24 23 24 24 24 24 25 24 23 23 23
5 6 6 8 8 7 6 6 7 8 8 9 9 9 9 9 9 9 10 10 11 12 13 13 13 13 12 11 10 11 11 10 6 4 2 2 8 12 15 18 13 14 19 17 18 20 18 14 10 9 9 9 9 8 6 6 8 9 10 12 13 15 16 17 20 24 27 29 28 27 27 27 26 25 25 25 25 25 26 25 26 26 25 24 23
6 5 5 6 7 7 6 6 7 7 6 7 7 8 9 8 8 9 10 10 11 12 13 13 13 13 13 12 11 11 13 14 12 10 6 2 2 4 11 17 14 14 18 16 15 18 19 17 12 9 10 10 10 8 8 7 6 8 10 11 11 13 14 15 17 21 25 28 28 28 28 28 27 26 26 26 26 26 26 26 27 27 27 26 25
6 5 4 4 5 6 6 6 6 7 6 6 7 7 7 8 8 8 9 10 10 11 12 12 13 13 13 13 13 12 10 10 11 10 7 3 2 2 6 9 9 14 19 17 13 15 18 18 17 15 13 13 12 10 9 8 7 7 8 10 10 12 14 14 15 18 23 26 28 29 29 29 29 28 27 27 27 27 27 28 28 28 27 27 26
6 6 5 4 3 5 5 5 5 6 6 6 6 6 6 6 7 7 7 8 9 10 10 10 10 11 12 13 13 12 9 6 6 8 6 3 2 2 5 9 7 10 17 18 12 12 15 16 18 19 18 17 16 14 11 8 6 7 6 7 9 11 12 13 14 16 19 24 26 29 30 30 30 29 28 28 28 28 28 28 29 28 27 27 27
7 7 6 5 3 3 3 3 4 5 5 5 6 6 6 6 6 6 5 6 6 7 7 8 9 9 9 10 11 11 10 8 7 7 6 4 3 1 5 9 7 8 15 16 11 9 13 14 15 18 19 18 18 16 14 11 8 7 6 5 7 8 9 11 13 14 15 19 24 27 29 31 31 30 30 29 29 28 28 28 29 30 28 27 27
9 9 7 6 5 3 2 2 3 4 4 4 4 5 6 6 5 4 4 4 4 4 5 6 7 7 7 8 9 9 10 9 8 8 6 5 5 3 5 8 4 7 13 14 12 9 9 12 12 13 18 18 17 17 15 14 11 7 6 6 6 6 8 10 12 13 14 16 20 24 27 28 29 29 30 30 30 30 29 29 30 31 30 29 28
10 10 8 7 6 4 4 4 3 4 3 3 3 3 4 5 5 4 3 3 2 3 4 5 5 6 6 7 8 8 8 9 8 9 8 7 6 3 4 6 4 6 8 10 13 9 7 13 10 9 16 17 17 17 14 13 12 8 6 6 7 6 6 7 8 11 13 15 16 19 23 25 26 28 30 30 30 31 31 30 31 31 31 31 30
10 9 8 8 7 5 5 5 5 5 5 4 3 3 3 4 5 5 4 4 2 1 2 3 3 4 5 6 7 7 7 8 7 7 8 8 7 5 3 3 3 4 3 6 11 8 9 16 11 8 16 18 17 17 14 12 11 9 8 7 7 6 5 5 6 7 10 12 14 16 19 22 23 25 27 29 30 31 31 31 32 32 32 32 31
10 10 10 10 9 6 6 6 6 6 6 6 5 5 4 4 5 5 5 5 4 3 2 1 2 2 3 4 5 6 6 6 6 7 7 7 6 6 4 1 2 4 2 3 6 5 10 16 11 10 17 18 17 16 13 12 10 9 9 8 7 6 5 5 5 5 7 10 12 14 16 18 19 20 23 26 28 30 32 32 32 33 33 32 31
11 11 11 12 11 9 7 7 7 8 8 8 8 7 7 6 6 6 6 6 6 6 5 5 5 4 4 4 3 4 5 5 4 4 6 6 5 6 6 2 2 3 2 3 3 2 8 15 10 11 18 18 15 15 12 12 11 10 10 9 9 7 5 4 4 5 5 7 10 12 14 15 16 18 21 24 26 29 32 32 32 31 32 33 31
12 12 12 12 12 11 10 8 8 9 9 9 10 9 9 9 8 8 8 8 9 9 8 8 7 6 6 6 5 4 3 4 3 2 4 5 6 6 6 3 2 2 1 2 3 3 7 12 12 13 18 18 15 14 12 11 12 11 11 10 9 8 6 5 4 4 3 4 7 10 11 12 13 15 18 21 23 25 27 29 30 31 33 34 33
14 13 13 13 14 13 12 10 9 10 10 10 11 11 12 12 11 11 10 9 11 11 10 10 9 8 8 7 6 5 4 4 3 1 2 3 5 6 5 3 3 2 1 1 1 3 6 10 12 14 16 17 15 13 12 11 12 12 12 12 10 9 8 6 5 4 3 3 3 6 7 8 9 11 14 18 21 23 23 24 27 30 32 32 32
16 16 14 13 15 15 14 12 11 11 12 12 12 12 13 13 13 13 12 11 12 12 11 11 11 10 10 9 7 6 5 5 4 3 3 3 4 6 5 4 3 2 1 1 2 5 9 10 12 13 14 15 14 12 12 12 12 12 12 12 12 11 10 9 7 6 5 4 4 5 6 7 7 9 11 14 18 21 21 22 25 28 30 31 32
18 18 16 13 14 16 16 15 13 13 13 13 13 13 14 15 15 15 14 13 13 13 12 11 10 10 11 11 9 7 6 5 5 4 3 4 4 4 5 5 4 3 2 1 2 5 8 12 14 14 14 14 14 12 12 13 13 12 12 12 12 11 11 10 8 7 6 6 6 6 7 7 7 8 10 12 15 18 19 20 23 26 28 30 31
19 19 18 15 13 15 16 16 15 14 14 14 14 14 15 15 16 16 15 15 14 14 13 11 9 9 10 11 11 9 7 6 6 6 4 4 5 5 5 6 6 4 3 3 3 4 7 12 16 15 14 14 14 13 13 14 14 13 12 12 12 11 11 10 8 7 7 7 7 7 8 9 9 9 9 11 13 16 17 20 22 25 26 27 28
18 19 19 17 15 15 16 16 16 15 14 15 15 16 16 16 16 16 16 16 16 15 14 12 10 9 10 11 11 11 10 9 8 7 6 6 6 7 7 7 7 6 4 5 5 5 6 10 13 15 14 14 14 13 13 14 14 14 13 12 11 11 10 10 9 7 7 7 7 7 8 9 10 10 10 11 12 13 15 17 20 22 23 25 27
16 17 18 19 18 17 17 17 17 16 16 15 15 16 17 17 17 17 17 17 17 16 15 13 11 10 11 11 11 10 11 11 9 8 7 7 7 8 8 8 7 6 6 7 7 6 6 8 11 14 14 14 14 13 13 14 15 14 14 13 12 12 11 10 10 9 7 7 6 6 7 8 10 10 11 11 12 13 14 14 16 18 20 22 24
16 15 16 17 18 18 18 19 18 18 17 17 16 15 15 16 17 18 17 17 17 17 16 15 14 12 12 12 11 9 10 11 11 10 9 9 9 9 10 10 8 8 8 8 8 7 7 8 11 13 14 14 15 14 14 15 17 16 15 14 13 13 13 11 10 9 8 6 6 7 7 7 7 8 10 11 12 14 14 14 14 15 16 18 20
16 15 15 16 17 18 18 19 19 19 18 18 18 16 15 16 17 17 17 17 17 17 17 16 15 14 13 12 11 10 10 11 12 11 10 10 11 10 11 11 10 9 9 8 8 8 8 9 10 11 13 15 16 16 16 16 17 16 16 16 15 14 14 14 13 11 9 8 7 8 9 9 7 7 7 9 11 12 13 14 14 14 14 15 17
16 16 15 15 17 18 19 20 20 20 19 19 19 18 17 17 17 18 18 18 18 18 18 17 16 16 14 12 12 11 11 12 12 11 11 11 11 11 11 12 11 11 10 9 9 9 10 10 10 10 11 13 15 17 18 17 15 13 14 17 17 17 17 17 16 13 10 8 7 8 11 11 8 7 6 7 8 8 9 11 13 14 15 16 16
16 16 16 16 17 18 19 20 21 20 20 20 20 19 18 18 18 18 18 19 19 19 19 19 18 17 16 14 12 12 12 13 13 12 12 12 12 12 12 12 11 11 11 11 10 11 11 11 11 11 11 13 15 17 18 18 15 12 14 14 14 16 18 18 17 14 10 9 9 10 12 12 10 9 7 6 6 7 7 8 11 12 14 15 17
15 15 16 17 17 19 20 20 21 21 21 22 21 21 21 20 19 19 19 20 21 21 21 20 19 18 17 16 14 13 12 13 14 14 13 13 13 13 13 11 11 11 12 12 12 13 13 12 13 13 12 13 15 16 16 16 14 14 15 13 11 13 17 18 16 12 9 11 14 14 14 13 12 11 9 7 7 7 8 8 9 11 12 14 15
15 16 16 17 18 19 20 21 22 22 23 23 23 22 22 22 21 21 21 21 21 22 22 22 22 21 19 18 15 13 13 14 15 15 14 13 12 13 12 12 12 13 13 14 14 14 12 12 13 12 11 13 16 15 13 14 14 13 13 13 12 13 14 15 15 12 9 13 19 19 15 13 12 12 10 9 8 8 9 8 7 8 9 11 12
18 18 18 19 20 21 21 22 23 23 24 24 24 23 22 22 22 22 22 21 21 22 23 24 24 23 21 19 17 15 14 14 16 17 16 14 14 14 14 14 13 14 14 16 16 15 13 13 13 12 11 14 17 17 15 14 13 11 11 12 12 12 11 10 10 10 10 14 20 21 17 13 11 10 10 8 8 8 8 8 7 7 7 7 8
21 21 21 21 22 23 23 24 24 25 25 25 24 24 23 23 23 23 23 22 22 23 24 24 25 24 22 21 19 17 16 14 15 18 18 18 17 16 16 15 15 15 16 17 18 18 16 15 14 15 14 14 16 16 16 14 12 10 11 10 10 10 10 9 10 10 11 15 18 18 16 13 10 9 10 9 8 8 7 8 9 8 8 7 5
24 24 25 25 25 25 26 26 27 28 27 26 25 25 25 25 24 25 25 25 25 25 24 25 25 25 24 22 21 20 18 16 15 17 19 20 20 19 18 17 17 18 18 18 19 19 19 18 17 17 17 15 14 14 13 13 13 12 11 10 11 11 10 10 11 12 13 15 14 13 13 12 10 10 10 7 7 9 8 7 9 10 9 7 5
25 26 27 28 28 28 29 29 30 30 30 29 28 27 27 27 27 27 28 28 28 27 27 26 26 26 25 24 23 22 20 18 17 17 19 21 21 21 21 20 20 19 19 19 20 20 21 20 19 19 18 16 15 14 12 11 12 13 12 12 11 11 12 12 12 14 14 13 10 8 9 11 11 10 9 6 7 9 9 8 9 10 10 8 6
26 27 27 28 29 30 31 31 31 32 32 32 31 30 30 29 29 29 30 30 30 30 30 29 29 28 28 27 26 24 22 20 19 18 19 21 22 23 22 22 21 20 20 20 20 19 20 20 20 20 19 17 16 15 13 12 12 13 13 13 12 13 14 14 13 15 15 11 7 5 7 10 12 10 10 10 9 9 9 8 9 10 10 8 6
28 28 28 29 30 31 31 32 32 33 32 32 31 31 31 30 31 32 32 33 32 32 32 32 31 31 30 29 28 27 26 24 21 19 19 21 23 24 24 24 23 22 21 20 19 18 17 17 19 19 18 18 17 15 14 14 14 14 14 15 16 15 14 12 10 13 14 10 7 7 8 10 11 10 10 11 10 9 9 8 9 10 9 8 7
30 31 31 31 31 32 32 32 33 33 33 31 30 31 31 30 30 32 33 34 34 34 34 34 33 33 33 32 31 30 29 27 24 22 20 22 24 25 25 25 24 23 22 20 18 17 16 15 17 18 18 18 17 16 15 14 14 15 15 16 17 15 11 9 8 9 11 13 13 12 9 9 8 7 8 10 9 10 10 10 10 9 9 9 8
32 32 32 32 32 32 33 33 34 34 34 32 31 31 31 30 30 30 31 33 34 35 36 36 36 36 35 34 33 32 32 31 28 25 22 23 25 26 27 26 25 25 23 19 17 16 15 14 16 17 18 18 17 16 15 14 14 15 15 15 16 13 10 10 10 10 12 16 18 13 8 7 7 6 6 7 7 8 10 11 10 10 10 10 10
33 32 31 30 30 31 33 34 34 34 35 34 33 32 32 31 30 28 29 31 32 33 35 36 37 37 37 36 35 35 34 33 32 29 26 25 26 27 27 26 25 26 25 20 17 15 14 14 15 17 17 17 16 16 15 15 15 15 15 14 13 12 11 12 13 11 9 11 13 11 8 7 7 6 5 4 4 5 7 9 10 10 11 12 12
Wind_Direction
42 59 72 71 69 62 54 47 42 42 41 45 44 40 35 33 27 326 325 334 336 335 338 331 326 326 322 320 324 327 318 310 300 299 329 342 346 343 293 253 258 259 249 241 238 239 243 242 231 218 209 200 193 189 189 193 190 187 189 187 184 182 180 177 174 174 177 177 171 168 170 169 175 173 164 162 157 155 161 162 163 165 165 164 163
44 59 70 67 63 53 47 43 42 41 37 39 41 40 40 40 36 19 8 8 360 348 345 342 342 340 331 326 328 334 326 315 296 283 301 326 342 360 356 244 247 262 260 246 240 236 235 238 234 224 215 207 203 196 194 195 191 191 192 189 187 185 184 181 177 180 183 182 175 170 172 174 178 177 168 165 161 159 162 165 166 168 172 170 166
49 57 61 59 54 48 44 46 49 47 36 31 30 28 28 30 32 27 25 28 20 5 355 354 360 354 343 340 336 338 333 324 306 290 297 312 340 10 14 268 244 251 248 239 238 235 234 236 231 224 218 212 205 199 198 197 192 193 195 192 190 188 188 185 182 187 187 184 179 173 176 179 180 181 176 170 167 166 166 169 173 172 175 176 173
52 55 56 52 47 44 44 45 45 41 28 18 13 12 9 10 13 15 17 25 25 16 7 3 5 6 1 0 358 353 342 331 319 303 305 306 339 3 5 332 264 241 234 236 237 231 234 237 229 223 221 218 210 202 201 199 193 193 197 196 191 190 191 189 187 190 189 186 183 177 178 181 183 187 185 178 176 175 172 172 176 174 172 176 183
49 51 48 44 38 38 43 41 35 27 16 7 3 0 358 2 5 5 6 9 11 10 8 8 12 17 15 10 6 0 348 335 322 314 330 335 333 338 338 335 313 259 241 242 243 229 231 240 233 224 222 223 218 209 205 203 197 193 197 198 192 190 191 192 192 192 191 190 187 182 180 182 187 193 191 184 183 183 179 175 176 179 176 173 184
47 44 34 31 31 33 37 37 31 22 9 5 7 6 5 11 14 11 6 3 0 358 358 4 13 21 20 13 2 356 350 336 325 330 360 1 342 333 323 314 312 304 257 248 248 230 230 241 238 229 223 223 220 214 211 209 202 195 196 199 196 191 190 193 196 195 194 194 191 185 183 185 191 196 195 189 190 192 187 180 178 185 185 176 180
44 37 27 26 31 34 37 40 38 30 22 24 29 30 28 26 23 16 7 1 359 358 356 359 6 14 11 2 353 351 352 341 343 2 12 9 359 339 319 308 309 315 270 249 244 230 232 236 236 235 227 219 215 215 214 210 207 201 199 199 198 194 191 193 198 199 197 196 193 186 184 193 198 196 196 194 194 196 191 184 182 185 189 183 181
39 35 34 35 36 40 43 46 47 42 38 38 41 41 38 35 28 21 12 4 0 359 357 356 358 6 6 2 3 6 5 348 4 26 20 14 11 3 339 328 333 341 334 268 248 239 238 234 235 243 236 220 215 217 214 210 209 204 200 199 200 197 193 192 195 199 199 196 194 190 192 200 201 195 196 198 197 196 192 187 186 185 185 187 186
37 37 42 41 41 46 48 48 47 42 39 38 40 36 31 32 29 25 18 11 6 359 356 356 356 8 18 20 28 44 53 45 46 43 33 26 20 20 11 347 344 347 346 329 291 266 255 246 241 242 241 229 222 220 213 210 210 206 201 201 201 200 196 194 195 198 199 195 194 197 201 201 198 195 195 198 198 197 195 191 190 189 185 186 191
33 32 37 43 45 47 46 45 39 32 30 31 32 28 24 25 25 24 19 16 14 5 358 354 355 20 39 50 66 73 73 68 61 53 45 40 37 35 29 11 357 349 348 339 315 301 285 284 270 250 245 240 232 226 216 213 213 207 203 204 204 202 198 197 197 199 198 194 194 199 201 197 197 199 196 197 199 198 197 193 192 195 192 186 189
23 23 28 38 43 43 42 40 34 27 24 23 23 21 20 20 17 18 16 16 15 8 2 355 355 37 54 69 85 80 76 74 65 58 51 46 44 41 35 24 15 11 11 8 343 315 288 285 289 271 257 246 238 233 222 217 215 209 206 206 207 204 200 199 199 199 200 196 196 200 202 197 196 199 197 198 201 200 198 197 196 198 197 191 188
12 16 22 31 37 41 40 38 34 27 25 25 23 20 20 19 17 15 14 14 12 9 5 359 5 58 68 82 91 79 73 76 71 65 58 53 52 48 41 33 27 26 24 23 18 351 320 303 303 302 287 259 240 233 226 220 216 213 211 207 208 208 205 204 202 200 200 199 199 200 202 201 198 200 201 201 203 202 202 203 201 201 202 198 194
5 8 13 20 28 33 36 39 36 30 29 28 24 20 20 19 20 22 24 25 22 16 11 8 22 48 63 84 92 80 74 74 71 68 64 59 54 49 45 39 33 32 28 24 20 2 343 327 321 319 316 293 253 234 228 222 214 214 213 209 209 210 208 207 205 203 202 201 201 199 199 202 203 204 205 204 205 207 205 205 203 202 206 205 200
3 2 3 10 19 23 29 35 35 32 30 27 23 20 20 19 20 25 37 42 39 28 21 23 28 23 23 48 66 81 76 68 66 68 66 59 52 48 47 43 38 35 30 25 17 4 352 341 335 327 321 312 276 241 232 226 219 218 216 210 209 210 210 208 206 207 207 204 202 200 197 201 204 206 207 205 206 210 211 207 205 205 207 206 203
1 357 356 3 14 19 24 27 29 30 28 28 28 26 26 25 23 26 36 47 48 40 34 33 29 23 33 28 17 29 61 51 51 59 61 56 52 50 49 49 43 37 31 24 15 7 1 354 350 344 330 316 287 250 238 233 230 230 222 213 211 211 211 211 208 209 211 209 206 203 199 199 203 206 208 207 206 211 214 209 206 210 210 206 206
0 357 355 0 10 17 20 22 24 27 27 29 32 32 32 31 29 30 33 37 43 45 44 41 37 38 48 39 30 41 25 7 10 42 54 50 47 46 47 48 44 37 31 26 17 6 4 4 1 355 342 322 291 262 247 239 235 235 228 220 217 214 213 215 212 212 213 213 210 207 203 201 203 206 208 209 207 209 215 211 206 211 213 210 208
359 1 0 0 6 12 16 22 23 23 25 28 31 31 30 32 32 34 36 34 36 44 49 47 46 49 54 58 36 52 20 318 327 12 37 39 38 38 40 39 39 35 30 26 21 11 5 9 12 7 358 341 309 279 261 250 243 239 237 235 227 219 219 219 217 216 216 216 214 211 208 205 205 208 210 210 208 209 214 214 211 213 213 212 212
355 359 2 359 360 6 10 15 16 17 23 25 28 28 26 29 35 40 44 41 38 42 45 47 52 54 59 69 66 63 347 332 13 345 351 18 22 26 31 29 32 33 29 28 26 19 11 9 15 17 12 1 333 289 268 260 254 248 246 248 238 227 226 225 223 221 218 217 217 214 212 210 208 210 212 213 212 212 215 216 215 215 213 212 215
341 351 358 355 353 358 4 8 11 13 19 22 25 27 27 32 42 48 52 51 48 50 48 43 48 50 56 71 68 60 51 46 79 345 332 339 356 8 16 17 25 29 26 29 30 27 20 14 18 23 21 8 351 319 279 262 258 255 252 252 245 238 237 233 230 226 222 220 218 216 216 214 212 212 213 213 215 215 215 218 217 216 215 213 216
318 337 350 351 348 350 354 2 7 8 14 20 23 28 30 32 41 49 55 57 57 60 57 50 47 44 47 61 64 57 55 61 74 66 76 292 341 358 357 357 9 22 22 24 28 30 26 24 23 22 22 12 5 355 321 283 266 261 260 257 249 247 248 242 237 232 228 225 222 220 219 217 215 215 214 215 217 217 216 218 218 217 217 216 217
295 317 337 345 346 345 346 352 357 0 9 16 20 28 32 32 39 47 52 57 60 61 61 56 53 48 44 50 55 52 52 57 63 64 67 38 352 349 345 351 352 356 9 17 26 33 33 34 33 24 24 18 9 3 350 332 303 278 268 264 253 249 255 251 245 239 233 229 226 224 222 220 220 218 218 218 219 220 219 218 219 219 219 218 218
281 290 313 331 343 345 345 348 347 347 359 9 13 21 32 37 39 42 47 55 60 58 56 54 53 51 48 50 51 48 47 46 48 52 55 43 19 330 338 351 336 334 352 3 16 34 39 43 43 37 33 28 21 12 4 360 342 312 280 271 264 253 256 256 250 244 237 232 227 226 225 222 222 221 220 221 220 221 221 220 219 219 220 219 219
272 267 284 302 330 348 349 348 340 338 348 4 11 10 18 31 33 33 41 52 57 53 50 48 45 44 45 49 51 51 52 47 38 41 48 41 11 341 335 340 324 321 343 353 2 30 41 45 47 41 36 31 27 22 15 12 358 339 310 283 277 267 261 260 257 251 244 236 229 228 227 225 224 223 222 222 222 222 222 222 221 220 220 219 219
271 259 265 275 289 331 346 345 335 333 342 359 11 9 5 13 24 31 41 52 53 47 47 45 42 42 40 42 46 48 52 56 49 41 40 33 19 354 331 340 333 324 341 351 355 19 37 40 42 38 33 29 24 20 16 14 12 1 338 305 292 280 268 263 263 262 254 242 234 230 230 227 225 225 224 223 224 224 223 223 223 222 222 222 221
274 266 263 266 271 282 310 323 319 319 331 347 3 9 3 358 2 16 32 43 41 39 43 42 39 41 36 32 34 40 49 53 46 33 30 27 23 13 338 340 327 322 340 351 353 1 26 29 32 30 23 23 20 18 16 14 16 14 355 334 319 298 280 271 265 264 261 254 244 235 232 230 227 227 227 226 226 225 223 222 225 225 224 225 225
272 269 261 255 263 272 280 289 292 291 300 318 332 348 355 350 343 342 348 356 14 34 42 40 35 33 27 24 29 36 46 49 39 25 21 14 11 15 344 335 312 315 331 344 351 354 0 6 18 20 10 11 12 12 13 13 13 10 359 344 335 324 303 289 273 264 259 258 256 246 240 237 233 233 232 229 228 228 226 223 224 226 227 227 228
268 265 250 242 251 263 268 275 280 279 282 286 289 298 318 332 331 327 322 316 317 346 45 44 36 33 25 21 27 33 42 50 41 20 15 7 2 6 353 338 320 325 325 335 350 356 350 355 7 11 2 2 4 6 6 6 9 7 1 350 341 339 327 311 292 275 262 257 258 254 249 244 239 237 236 232 229 230 231 227 224 225 228 228 228
265 258 244 239 244 254 262 267 270 275 280 279 275 273 277 298 310 310 311 305 297 289 278 301 327 355 6 5 16 21 26 40 40 24 11 0 2 7 0 344 318 335 344 331 345 357 354 356 360 357 360 2 1 2 2 1 3 5 4 359 354 353 345 331 312 292 276 262 255 252 253 250 243 239 237 236 233 233 235 232 227 227 228 229 229
264 257 247 242 243 249 257 260 263 269 276 277 276 271 265 273 288 297 304 301 294 291 283 285 293 295 300 310 335 1 7 10 20 19 3 359 18 20 8 5 314 322 344 345 332 309 348 357 354 343 354 3 4 2 4 6 5 3 4 1 0 1 355 345 331 315 294 272 259 254 256 255 248 242 240 241 241 239 239 236 232 232 231 230 230
266 260 253 247 245 249 253 256 260 264 270 273 274 274 271 270 277 285 295 298 296 296 292 288 290 288 289 295 297 301 323 339 348 354 345 3 27 19 8 13 344 301 270 330 328 290 331 352 354 346 348 355 2 5 6 11 9 5 5 3 2 2 355 353 354 346 329 292 268 260 259 256 251 249 246 246 246 245 242 238 236 235 233 230 228
265 257 253 251 248 248 251 254 257 260 265 270 271 273 274 273 276 279 284 292 293 296 297 293 290 285 283 290 297 292 287 300 317 316 299 331 359 357 359 16 4 318 247 240 315 315 323 336 344 350 348 346 356 5 4 8 10 8 8 6 5 5 359 360 5 357 348 333 289 271 267 259 253 253 251 249 248 247 244 243 243 240 237 235 230
265 256 253 256 251 247 249 253 256 259 261 264 268 270 272 275 276 277 279 284 286 290 296 295 290 283 277 279 291 296 287 281 288 295 274 279 314 333 344 356 4 353 316 212 243 309 327 334 339 349 350 344 350 360 357 358 6 9 11 9 5 4 5 6 7 357 343 329 308 293 286 275 264 257 252 250 249 250 249 248 249 246 242 239 234
267 258 253 260 258 249 248 249 254 260 261 261 265 268 271 274 276 277 277 277 280 284 290 294 294 288 279 274 277 287 288 272 271 285 281 271 287 308 324 331 342 345 316 268 243 293 328 342 342 345 350 346 347 354 352 351 357 1 7 11 9 5 6 8 6 356 342 328 317 303 289 282 276 264 254 249 248 250 251 252 252 248 244 241 238
268 261 255 258 262 254 248 246 250 258 261 259 261 264 269 274 277 280 279 275 275 278 283 288 295 296 287 277 272 275 279 271 266 271 278 282 285 293 309 320 327 324 300 291 279 266 304 326 330 332 341 344 344 350 349 346 348 349 353 3 9 9 10 10 6 358 344 330 320 308 292 282 277 270 262 255 252 248 245 246 249 249 246 242 239
271 266 258 255 259 257 248 246 249 253 257 260 260 261 265 270 276 280 282 278 273 274 277 280 287 293 291 284 276 271 270 268 264 263 274 290 289 286 294 307 315 316 304 298 293 274 287 311 321 326 334 339 342 348 347 342 341 340 340 347 355 2 11 14 10 5 356 345 329 312 298 286 279 275 267 262 260 256 248 245 246 249 248 242 239
272 271 264 256 255 256 249 246 249 249 252 257 258 260 263 266 271 276 279 277 271 271 274 276 278 285 288 287 283 275 266 260 256 259 269 283 288 286 287 292 298 303 304 298 293 289 287 298 314 325 332 335 338 344 346 342 341 338 336 337 339 342 352 4 10 7 4 4 356 336 314 296 286 279 271 262 258 259 258 253 249 248 246 242 240
270 271 269 259 253 252 247 244 246 248 249 251 254 259 263 266 268 270 272 272 269 268 270 272 272 277 283 287 286 278 263 252 248 255 264 271 280 287 288 287 285 287 294 295 292 294 289 291 307 323 333 336 335 339 343 342 340 338 336 336 336 337 337 340 352 360 355 355 2 1 346 321 300 286 275 265 256 253 253 253 251 249 248 245 243
266 266 267 260 252 250 246 242 245 248 248 248 252 258 264 267 266 265 265 265 265 265 266 267 268 271 278 285 286 275 260 250 248 252 258 265 275 284 287 287 283 280 284 289 290 293 298 303 308 318 333 338 336 336 339 339 337 335 337 338 338 342 342 337 340 349 348 339 340 353 354 342 321 300 280 267 257 249 248 249 249 248 247 246 244
267 263 262 257 252 250 248 244 244 247 248 249 253 258 263 265 263 261 262 262 263 263 263 264 265 266 273 282 284 275 259 250 250 252 256 264 273 279 280 281 279 277 280 284 286 289 296 307 310 313 325 333 334 334 335 337 337 335 339 338 334 339 345 343 341 342 341 335 330 336 345 342 324 307 289 271 264 257 251 250 250 249 248 245 243
264 262 261 258 254 251 249 246 246 248 249 251 254 258 261 261 260 260 261 262 263 263 262 263 263 264 269 277 281 277 264 253 251 252 256 264 272 274 274 274 274 276 280 282 282 286 292 297 301 306 314 321 327 332 335 340 340 333 335 335 326 329 337 338 339 340 337 339 337 332 338 339 326 312 300 285 283 282 273 259 253 253 252 250 248
259 258 258 258 256 253 251 249 249 249 249 251 253 257 260 261 262 264 265 265 264 264 263 263 262 262 266 272 276 277 268 256 250 251 257 265 271 272 270 269 270 275 281 282 280 283 289 292 295 303 310 314 321 329 333 337 335 327 331 336 326 327 333 331 334 341 341 342 341 337 341 344 333 321 312 299 293 295 293 281 265 258 254 255 255
259 255 254 254 254 253 252 251 251 251 252 253 255 257 260 262 265 268 269 267 264 263 262 262 262 262 265 268 273 275 270 257 248 249 255 260 262 266 267 267 269 275 280 282 280 280 282 284 290 298 302 306 316 324 323 326 331 329 333 338 329 328 332 329 329 337 342 343 339 335 342 351 338 326 323 315 309 310 309 303 290 276 266 261 262
259 256 253 251 250 250 251 251 252 252 254 256 257 259 260 261 263 265 266 266 264 262 262 261 262 263 264 266 268 270 270 261 250 247 249 251 250 256 264 266 269 274 276 277 278 277 275 276 282 288 288 295 309 320 320 322 330 329 324 325 320 320 327 325 321 322 328 338 336 329 334 350 343 330 334 334 329 327 322 317 312 305 295 283 274
258 256 254 252 250 250 250 251 253 254 255 257 259 260 261 260 261 261 261 262 263 263 262 261 262 263 264 265 265 266 268 266 257 248 245 246 248 253 260 264 267 273 275 274 274 273 272 272 276 281 284 290 302 315 320 321 323 320 318 320 314 310 310 306 302 299 311 332 333 322 325 343 348 337 339 345 341 334 327 324 320 317 317 316 308
257 256 256 255 254 253 251 252 254 255 257 258 259 260 261 260 260 260 260 261 262 263 263 262 262 262 263 263 262 263 266 266 261 252 244 243 247 251 257 262 267 272 275 275 273 270 269 269 271 277 285 290 297 308 318 319 314 313 315 318 316 308 296 291 290 290 305 328 329 313 316 336 346 332 322 328 342 334 321 318 316 314 317 322 326
257 257 258 258 258 258 256 255 257 259 260 261 261 260 260 260 260 260 260 261 261 263 263 263 262 261 261 261 260 261 264 264 261 255 247 243 244 249 256 261 266 271 274 276 275 269 265 264 267 276 286 293 297 304 312 311 308 308 308 307 308 303 293 286 285 288 302 320 321 301 302 322 335 326 306 304 332 327 313 307 308 308 309 315 323
257 259 261 262 263 263 262 261 260 262 266 267 266 263 261 261 260 260 260 260 259 260 261 262 262 261 260 260 259 259 261 261 260 256 250 244 243 248 255 260 264 269 273 276 278 274 267 264 267 275 284 292 297 300 300 299 300 303 303 299 295 292 292 291 287 290 298 308 309 292 290 307 320 314 298 298 307 304 299 299 299 299 298 301 307
258 259 260 262 264 265 266 265 263 265 270 273 272 269 267 264 261 259 259 258 257 258 259 260 260 260 260 259 257 257 257 258 259 257 252 247 245 247 252 258 263 268 272 276 279 278 270 264 267 274 281 289 294 294 293 293 296 299 299 297 294 291 291 290 286 287 291 293 297 293 285 297 312 310 299 300 298 291 290 287 286 288 288 289 292
258 259 259 261 262 264 265 265 263 265 270 274 274 274 273 269 264 260 258 257 256 255 257 258 259 259 259 259 257 257 256 256 256 255 251 247 246 247 250 256 262 268 271 274 276 274 268 263 266 271 278 285 289 289 291 292 294 295 292 291 296 296 287 280 278 279 280 285 294 296 283 283 302 311 304 301 292 281 275 269 270 275 276 277 282
261 262 263 264 264 264 264 264 265 265 269 273 274 273 274 273 267 262 260 257 255 255 256 257 257 257 258 259 258 256 256 257 256 253 250 246 245 247 250 255 261 266 269 271 273 270 264 262 264 268 273 281 283 286 291 293 293 291 284 286 296 296 277 270 274 273 277 285 289 285 264 259 281 297 299 297 288 275 268 263 262 265 267 271 277
263 265 265 265 268 271 270 268 267 265 267 273 275 272 273 274 269 265 262 256 253 255 256 256 256 256 256 258 258 256 256 258 256 252 249 246 245 246 249 251 256 263 267 269 269 265 258 256 260 264 269 275 280 285 293 297 297 293 286 287 294 287 271 269 273 273 276 281 277 264 249 261 277 282 285 292 286 275 274 272 269 268 269 271 277
Height
799 799 799 798 798 798 798 797 797 796 796 795 794 793 792 791 791 790 790 790 790 790 790 790 790 790 790 790 790 790 790 790 790 791 791 792 793 793 793 793 792 793 795 795 795 796 797 798 800 801 801 802 802 803 804 805 806 808 809 810 811 812 814 815 817 818 819 821 822 823 825 826 827 828 829 831 832 833 834 835 836 836 837 837 838
801 800 800 799 799 798 798 798 797 797 796 795 795 793 793 792 791 791 790 790 790 790 790 790 790 790 790 790 790 789 789 789 789 790 791 792 792 792 792 792 792 792 794 795 795 795 796 798 800 801 801 802 803 803 804 805 806 807 808 810 811 813 814 815 816 818 819 820 822 823 824 825 827 828 829 831 832 833 834 835 835 836 837 837 838
802 801 801 800 800 799 799 798 798 797 797 796 795 794 793 792 791 791 790 790 790 790 789 789 789 789 789 789 789 789 789 789 789 789 790 791 792 792 791 791 792 793 793 793 794 794 796 797 799 800 799 799 800 801 802 804 805 807 808 809 811 812 813 815 816 817 819 820 821 823 824 825 826 828 829 830 832 832 833 834 835 836 837 837 838
804 803 802 802 801 800 799 799 798 798 797 797 796 795 794 793 792 791 791 790 790 790 789 789 789 789 789 788 788 788 788 788 788 788 789 790 791 791 791 791 791 792 792 792 794 795 796 796 797 798 797 798 799 799 801 802 804 805 807 808 810 812 813 814 815 816 818 819 821 822 823 824 825 827 829 830 831 832 833 834 835 835 836 837 838
805 804 804 803 802 801 800 799 799 798 798 797 796 795 794 793 793 792 791 790 790 790 789 789 789 789 788 788 788 788 787 787 787 788 789 790 791 791 790 790 790 791 792 792 794 795 796 795 795 796 796 797 798 800 801 802 803 804 805 806 808 810 812 813 814 816 817 818 820 821 822 823 825 826 828 830 831 832 833 833 834 835 836 836 837
806 805 805 804 803 802 801 800 799 799 798 797 796 795 795 794 793 792 791 791 790 790 789 789 789 789 788 788 787 787 787 787 787 787 788 790 790 791 790 790 790 791 791 792 793 794 794 794 794 795 795 795 797 799 802 803 803 804 804 805 807 808 810 812 813 814 816 818 819 820 822 822 824 825 827 829 830 831 832 833 834 834 835 836 837
807 806 806 804 804 803 802 801 800 799 798 798 797 796 795 795 794 793 792 791 791 790 789 789 789 789 788 788 787 787 787 787 787 787 788 789 790 790 790 789 789 790 791 791 791 792 792 793 794 794 794 795 795 797 799 801 803 803 804 805 806 807 809 810 812 814 815 816 818 819 821 822 823 824 826 828 829 830 832 833 833 834 834 835 836
808 807 806 805 805 804 803 802 801 800 799 798 797 797 796 796 795 794 793 792 791 790 790 789 789 789 788 788 787 787 787 787 787 787 788 788 789 789 789 789 789 789 790 790 790 791 791 792 793 793 794 795 795 796 797 799 801 802 803 804 805 806 807 809 811 812 814 815 817 818 820 821 822 823 825 827 828 830 831 832 833 833 834 835 836
809 808 807 806 806 805 804 803 802 801 800 799 798 798 797 797 796 795 794 793 792 791 790 790 789 789 789 788 788 788 787 787 787 787 788 788 788 789 789 788 788 788 789 789 789 789 790 790 792 792 793 794 795 795 796 798 800 801 802 803 804 806 807 808 809 811 812 814 816 818 819 820 821 822 824 825 827 828 830 831 832 833 833 834 835
810 809 808 808 807 806 805 805 804 803 802 801 800 799 798 798 797 796 795 794 793 792 790 790 790 790 789 789 789 789 788 788 788 787 787 787 788 788 788 788 788 788 788 788 788 788 788 789 790 791 792 792 793 793 795 796 798 800 801 802 804 806 806 807 808 809 811 813 815 817 818 819 821 822 823 824 826 827 829 830 831 832 833 833 835
811 811 810 809 808 807 806 805 805 804 803 802 801 800 799 799 798 797 796 795 794 793 791 790 790 790 790 790 790 790 789 789 788 788 787 787 788 788 788 788 788 788 788 788 788 787 788 788 789 790 790 791 791 792 794 795 796 798 800 801 803 805 805 806 807 808 810 812 814 816 817 819 820 821 822 824 825 826 828 829 830 831 832 833 834
812 811 811 810 809 808 807 806 806 805 804 803 802 801 800 800 799 798 797 796 795 793 792 790 790 790 791 791 792 792 791 790 789 789 788 788 788 788 788 788 788 787 787 787 788 787 787 787 788 789 789 789 790 791 792 793 794 796 797 798 801 803 804 805 806 807 808 810 812 814 816 817 819 820 822 823 824 825 827 828 829 830 831 831 833
813 812 811 811 810 809 808 807 807 806 805 804 803 803 802 801 800 799 798 797 796 794 792 791 790 791 791 792 793 793 792 792 791 790 789 789 789 789 788 788 788 787 787 787 787 787 787 787 787 787 787 788 788 789 790 791 792 794 796 797 798 800 802 804 805 806 807 809 811 813 814 816 817 819 820 822 823 824 825 827 827 828 829 830 831
813 813 812 811 810 810 809 808 807 807 806 805 805 804 803 802 801 800 799 798 797 795 793 792 791 792 793 793 793 794 793 792 792 791 790 790 790 789 789 789 788 787 787 787 787 787 786 786 786 786 786 786 786 787 788 789 791 792 794 795 797 799 801 802 804 805 806 808 810 811 813 814 816 817 819 820 822 823 824 825 826 827 828 829 830
814 813 813 812 811 810 809 809 808 808 807 806 806 805 804 803 802 801 800 799 798 797 795 794 793 793 793 794 795 795 793 793 793 792 792 791 791 790 789 789 789 788 787 787 787 786 786 785 785 785 785 785 785 786 787 788 790 791 792 793 795 797 799 800 801 803 805 807 808 810 811 813 814 815 817 818 820 822 823 824 825 826 826 827 828
814 814 813 813 812 811 810 810 809 808 808 807 806 806 805 804 803 802 801 800 799 798 797 796 794 793 794 795 796 797 796 795 794 793 793 792 791 791 791 790 789 789 788 787 787 786 786 785 784 784 784 784 784 785 786 788 788 789 790 791 793 796 798 799 800 802 804 806 807 808 810 811 812 814 815 816 818 820 821 822 824 825 825 826 827
814 814 813 813 812 812 811 810 810 809 808 808 807 806 806 805 804 803 802 801 800 800 798 797 796 795 795 796 797 798 798 797 795 794 793 792 792 792 791 791 790 790 789 788 787 786 785 785 784 784 783 783 784 784 785 787 787 788 789 790 792 794 796 797 799 801 803 806 807 808 808 810 811 813 814 815 816 818 819 821 822 823 824 825 826
814 814 814 813 813 812 812 811 811 810 809 808 808 807 806 805 805 804 803 803 802 801 800 799 798 797 797 797 798 798 798 796 796 795 793 792 792 792 792 792 791 790 790 789 788 787 786 785 784 784 783 783 783 783 784 785 786 787 788 788 790 792 794 796 797 799 801 803 805 806 807 808 809 811 812 813 815 816 818 819 820 821 822 823 824
815 815 814 813 813 813 813 812 811 811 810 809 808 808 807 806 806 805 804 804 803 802 802 801 800 799 799 798 798 798 797 796 797 797 796 794 792 792 792 792 792 791 790 789 788 787 786 785 784 784 783 783 783 783 784 784 785 786 787 788 789 791 792 794 795 796 798 800 802 804 805 806 807 809 810 812 813 814 816 817 818 819 820 821 823
815 815 814 814 813 813 813 812 812 811 811 810 809 809 808 807 807 806 806 805 804 803 803 802 801 801 800 799 799 799 798 797 797 797 799 797 794 792 792 791 792 791 791 790 789 788 787 785 784 784 783 783 783 783 784 784 785 786 787 787 788 789 791 792 793 795 796 798 800 802 803 804 805 806 808 809 811 812 814 815 816 817 818 819 821
815 815 814 814 814 813 813 813 812 812 811 811 810 810 809 809 808 807 807 806 805 805 804 804 803 802 802 801 800 800 799 798 798 797 798 799 798 796 794 792 791 791 791 791 790 789 788 786 785 785 784 783 783 783 783 784 785 785 786 787 788 789 790 791 792 793 794 796 797 799 801 802 803 804 805 807 809 810 811 813 814 815 816 817 819
815 815 815 814 814 813 813 813 813 812 812 812 811 811 810 809 809 808 808 807 807 806 806 805 804 804 803 802 801 801 800 799 799 799 799 799 799 799 797 795 793 791 791 791 791 790 789 788 787 786 785 785 784 784 784 784 784 785 786 787 787 788 788 789 790 790 791 792 794 796 799 800 801 802 803 805 807 808 809 811 812 813 814 815 817
814 814 814 814 814 813 813 813 813 813 812 812 812 811 811 810 810 809 809 808 808 807 807 806 806 805 804 804 803 802 802 801 801 800 800 800 800 799 798 797 796 793 792 791 791 791 790 789 788 787 787 786 785 785 784 784 784 784 785 786 786 786 787 787 788 788 788 790 792 794 795 797 798 800 801 803 805 806 807 809 810 811 812 813 814
813 813 814 814 813 813 813 813 812 812 812 812 812 811 811 811 810 810 809 809 808 808 807 807 806 806 805 805 804 804 803 802 802 801 801 801 801 800 799 797 797 795 793 792 791 791 790 790 789 789 788 787 786 786 785 785 784 784 784 784 785 785 785 786 786 786 787 788 790 791 792 794 796 797 798 800 802 804 805 807 808 809 810 811 812
812 812 813 813 813 813 813 812 812 812 812 812 812 811 811 811 810 810 810 809 809 808 808 808 807 806 806 805 805 805 804 803 803 802 801 801 801 800 800 798 798 796 795 793 792 791 790 790 790 789 789 788 787 786 785 785 784 784 783 783 784 784 784 784 784 785 786 787 788 788 789 791 793 794 795 798 800 801 803 805 805 806 807 808 809
811 811 812 812 812 812 812 812 812 812 812 812 811 811 811 811 810 810 810 810 809 809 808 808 807 807 806 806 805 805 804 803 803 803 802 801 801 801 800 799 798 797 795 794 793 792 791 790 790 790 789 789 788 787 786 785 784 783 783 783 782 782 782 782 783 783 784 785 785 785 787 789 791 792 793 795 797 798 801 802 803 804 805 806 807
810 810 811 811 811 811 811 811 811 811 811 811 811 811 811 810 810 810 810 809 809 809 808 808 808 807 806 806 806 805 804 804 803 803 802 802 801 801 800 800 799 797 796 795 793 793 792 791 791 790 790 789 788 787 786 785 784 783 782 782 781 781 781 781 781 781 782 783 783 784 785 787 789 790 791 793 795 797 799 800 800 801 802 803 804
809 810 810 810 810 810 810 811 811 811 811 811 811 810 810 810 810 810 809 809 809 808 808 808 807 807 806 806 806 805 805 804 803 803 803 802 801 800 800 800 800 798 797 796 794 793 793 792 791 790 790 789 788 787 786 785 784 783 782 781 781 780 780 780 780 780 780 781 781 783 784 785 787 788 789 790 793 795 795 796 797 798 799 800 801
809 809 809 809 810 810 810 810 810 810 810 810 810 810 810 809 809 809 809 808 808 808 808 807 807 807 806 806 805 805 804 804 803 803 803 802 801 800 800 799 799 799 798 797 795 794 793 792 791 791 790 789 788 787 786 785 783 783 782 781 780 779 779 779 779 778 778 779 779 780 782 783 784 786 787 788 790 791 792 793 794 796 797 798 799
808 808 809 809 809 809 809 809 809 809 809 809 809 809 809 809 808 808 808 808 808 807 807 807 806 806 805 805 805 804 804 804 803 803 803 802 801 800 800 799 798 798 798 798 797 794 793 793 792 791 790 789 788 787 786 785 783 782 781 780 780 779 778 778 777 777 777 777 777 778 779 781 782 783 784 785 787 788 789 791 792 792 792 793 794
807 807 808 808 808 808 808 808 808 808 808 807 807 808 807 808 807 807 807 807 807 806 806 806 805 805 805 804 804 804 803 803 803 802 802 802 801 800 799 799 798 798 797 797 797 795 793 792 792 791 790 789 788 787 786 785 783 782 781 780 779 779 778 777 777 777 776 776 777 777 778 778 779 780 780 782 783 784 785 787 788 787 788 788 790
805 805 806 806 806 806 806 806 806 806 806 806 806 806 806 806 806 806 806 806 806 805 805 804 804 804 803 803 803 803 802 802 802 802 801 801 801 800 799 799 798 797 797 797 796 794 793 792 791 791 790 789 788 787 786 785 784 783 781 780 779 778 778 777 776 776 776 776 776 776 776 776 776 777 777 778 780 781 782 783 783 783 785 787 787
803 803 804 804 804 805 805 805 805 805 805 805 805 805 805 804 804 804 804 804 804 804 803 803 803 802 802 802 802 802 801 801 801 801 801 800 800 799 799 798 797 797 796 796 795 794 792 791 791 790 790 789 787 787 786 785 784 783 782 781 780 778 777 777 776 775 775 775 774 774 775 775 775 775 775 775 776 778 779 779 780 780 782 784 785
801 801 802 802 803 803 803 803 804 803 803 803 803 803 803 803 803 802 803 803 803 802 802 802 801 801 800 800 800 800 800 800 800 800 800 799 799 799 798 797 797 796 796 795 794 793 792 790 790 789 789 788 787 786 785 784 783 783 782 781 780 779 778 777 776 775 774 774 773 773 773 773 773 773 773 773 773 774 775 776 777 777 778 780 781
799 799 800 800 801 801 801 802 802 802 802 801 801 801 801 801 801 801 801 801 801 801 800 800 800 800 799 798 798 798 799 798 798 798 798 798 798 798 797 797 796 796 795 794 794 793 792 790 789 788 788 787 787 786 785 784 783 782 781 781 780 779 778 777 776 775 774 773 772 772 771 771 771 771 771 771 771 772 773 773 774 773 774 776 777
798 798 798 798 799 799 799 799 800 800 800 799 799 799 799 799 799 799 799 799 799 799 798 798 798 798 798 797 796 796 797 797 797 797 797 796 796 796 796 796 795 795 794 794 793 792 792 791 789 788 787 787 786 786 785 784 783 782 781 780 779 779 778 777 776 775 774 773 772 771 771 770 770 769 769 769 769 769 770 770 770 770 771 772 774
796 796 796 796 797 797 797 797 797 797 797 798 798 798 798 798 797 797 797 797 797 797 796 796 796 796 796 795 795 795 795 794 795 795 795 795 795 795 795 795 794 794 793 793 792 792 791 790 789 788 787 786 785 785 784 783 782 781 780 779 779 778 777 777 776 775 774 773 772 771 770 769 769 768 768 767 767 767 767 768 768 768 768 769 770
795 795 794 794 794 794 794 794 795 795 795 796 796 796 796 796 796 795 795 795 795 795 795 794 794 794 794 794 793 793 793 793 793 793 793 793 793 793 793 793 793 793 792 792 791 791 790 790 789 788 787 786 785 784 784 783 782 780 779 778 777 777 776 775 775 774 774 773 772 771 770 769 768 767 767 766 766 765 765 765 766 766 766 766 767
794 793 793 793 793 792 793 793 793 793 793 794 794 794 794 794 794 794 793 793 793 793 793 793 792 793 792 792 792 791 791 791 791 791 792 792 792 792 791 791 791 791 791 791 790 790 789 788 788 787 786 786 785 784 783 782 781 780 779 777 776 776 775 775 774 773 772 772 771 771 770 769 767 766 766 765 765 764 764 763 763 764 764 764 764
792 792 792 792 792 791 791 791 791 791 792 792 792 792 792 792 792 792 791 791 791 791 791 790 791 791 791 790 790 790 789 789 790 790 790 790 790 790 789 789 790 790 790 790 789 789 788 788 787 786 786 785 784 783 782 781 780 780 779 778 777 775 775 774 773 772 771 771 770 769 769 768 767 766 765 764 764 763 762 762 761 761 762 762 762
791 791 791 791 791 790 790 790 790 790 790 790 790 790 790 790 790 790 790 789 789 789 789 788 789 789 789 788 788 788 788 788 788 788 788 788 788 788 788 788 788 788 788 788 788 787 787 786 786 785 785 784 783 783 782 781 781 780 779 778 777 776 775 773 773 772 771 771 770 768 768 767 766 765 764 763 763 762 761 760 759 759 759 759 759
790 790 790 789 789 789 788 788 788 788 788 787 787 788 788 788 788 788 787 787 787 787 787 786 786 786 786 786 786 786 786 786 786 786 786 787 786 786 786 786 786 786 786 786 786 786 785 785 784 784 783 782 782 782 781 781 780 779 778 778 776 775 774 773 772 772 771 771 769 767 767 766 765 764 763 762 762 761 760 759 758 758 757 757 757
787 787 787 787 787 787 786 786 786 786 786 785 785 786 786 786 786 786 785 785 785 785 784 784 784 784 784 784 784 784 784 783 784 784 784 785 785 785 785 785 785 785 784 784 784 784 784 783 783 782 782 781 781 781 780 779 779 779 778 777 776 775 774 773 772 771 771 771 769 767 766 765 764 763 762 762 761 761 760 759 758 757 757 756 756
784 784 784 784 784 784 784 784 784 783 783 782 783 783 783 783 783 783 783 783 782 782 782 782 781 781 781 782 782 782 781 781 781 781 782 782 783 783 783 783 783 783 782 782 782 781 781 781 781 780 780 780 779 779 778 778 777 777 777 776 776 775 774 773 772 771 771 771 769 767 765 764 764 762 762 761 761 760 760 759 758 757 756 755 755
781 781 781 781 781 781 781 781 780 780 780 780 780 780 780 780 780 780 780 780 779 779 779 779 779 779 779 779 779 779 779 779 779 779 779 780 780 780 781 781 780 780 780 780 779 779 779 779 778 778 778 778 777 777 777 776 776 775 775 775 775 774 773 771 771 770 770 770 769 766 764 763 763 762 761 761 760 760 759 759 758 757 756 755 754
777 777 777 777 777 777 777 777 777 776 776 776 776 777 777 777 777 777 777 777 776 776 776 776 776 776 776 776 776 776 776 777 776 776 776 777 777 778 778 778 778 778 778 777 777 776 776 776 776 775 775 776 775 775 775 775 774 773 773 773 773 773 771 770 769 769 769 769 768 766 764 762 762 761 760 760 760 759 759 758 757 756 755 755 754
774 773 773 773 773 773 773 773 773 772 771 771 772 773 773 773 774 774 774 773 773 773 773 773 773 773 773 773 774 774 774 774 774 774 774 774 774 775 775 775 775 775 775 774 774 774 773 773 773 773 773 773 773 773 773 773 772 772 771 771 771 770 769 768 768 768 767 767 767 766 763 762 761 761 759 759 759 758 758 757 756 756 755 754 754
770 770 770 769 769 769 769 769 769 769 767 767 767 768 768 769 770 770 770 769 769 769 769 769 769 769 770 770 770 770 770 771 771 771 771 771 772 772 772 772 772 772 772 772 771 771 771 771 771 771 771 771 771 771 771 771 770 770 769 769 768 768 767 766 766 766 766 765 765 764 763 761 760 760 758 758 757 757 757 756 756 755 755 754 754
766 766 765 765 765 765 765 765 765 764 763 763 764 764 764 764 765 765 765 765 765 765 764 765 765 765 765 766 766 766 767 767 768 768 768 769 768 768 768 769 769 769 769 769 769 768 768 768 769 769 769 768 768 768 768 768 768 768 767 766 765 765 765 765 764 764 764 763 763 763 762 760 759 759 758 757 756 756 755 755 755 754 754 753 753
761 761 761 761 761 761 761 760 760 760 759 759 759 760 760 760 761 761 761 761 761 760 760 760 761 761 761 761 762 762 762 762 763 765 765 765 765 765 765 765 765 765 765 766 766 766 766 766 766 766 766 766 766 766 766 766 765 765 765 763 763 763 763 763 762 762 761 761 761 761 760 758 758 758 757 756 755 755 754 754 753 753 753 753 752
757 757 757 758 758 757 757 756 756 756 755 754 755 755 756 756 757 757 758 757 757 756 756 756 756 756 757 757 758 758 758 758 759 760 762 762 761 761 762 762 762 761 762 763 763 763 763 764 764 764 764 764 763 763 763 763 763 762 762 761 760 760 761 760 760 760 759 758 758 758 758 757 757 757 756 756 755 754 753 753 752 752 752 752 751